Погода в Кардоновке

Россия / Республика Дагестан     43°49′00″N   46°50′37″E
темп.,
°C
ветер,
м/с
пор.,
м/с
влажн.,
%
обл.,
%
осадки,
мм/ч
давл.,
гПа
погр.,
м
17 апреля, сб
сб1700:00+11в49615 0.0 1019134
03:00+11вюв4106796 0.0 1018160
06:00+11вюв4117241 0.0 1018212
09:00+19вюв7104834 0.0 1017605
12:00+21вюв5641100 0.0 1018920
15:00+22в3241100 0.0 10181217
18:00+16в4761100 0.0 1018145
21:00+12в1169100 0.0 102010
18 апреля, вс
вс1800:00+12сз2367100 0.0 102031
03:00+13ссз3768100 0.0 1020215
06:00+11с2790100 0.0 1020268
09:00+16всв3461100 0.0 1019685
12:00+20св33415 0.0 10171288
15:00+20ссв6545100 0.0 10171356
18:00+15св476499 0.1 1019259
21:00+13вюв1275100 0.1 101958
19 апреля, пн
пн1900:00+11всв347690 0.0 101855
03:00+10вюв3581100 0.0 101871
06:00+11вюв3577100 0.0 1018127
09:00+17в4454100 0.0 1018483
12:00+21вюв554589 0.0 1016895
15:00+21вюв664556 0.0 1015836
18:00+16в5863100 0.0 1016317
21:00+13всв51175100 0.0 1016249
20 апреля, вт
вт2000:00+12в51280100 0.0 1015261
03:00+12вюв6157588 0.0 1013361
06:00+13вюв91866100 0.0 1011459
09:00+18вюв12195472 0.0 1009681
12:00+20вюв12185264 0.0 1007691
15:00+19вюв132154100 0.0 1005610
18:00+15вюв112262100 0.0 1006591
21:00+14юв71875100 0.4 1007460
21 апреля, ср
ср2100:00+13вюв4786100 1.1 1010292
03:00+12з499399 1.1 1013284
06:00+13з598926 0.0 1015324
09:00+17з786562 0.1 1016981
12:00+21з675291 0.0 10171525
15:00+18з7864100 0.1 10171047
18:00+16зюз6972100 0.1 1019571
21:00+13зюз61087100 1.7 1020439